User: anonymous   Login
Location: Newark
(48.8604°N, 2.3376°E)
Time: 13:02:38
(UTC+00:00)
Language:

METEOR M2 - Orbit

View from above orbital plane
View from above orbital plane
View from above satellite
View from above satellite

Ground track
Ground track

The orbit data is extracted from the following two-line orbital elements,

1 40069U 14037A   21340.13973405 -.00000008  00000-0  15323-4 0  9993
2 40069  98.4472   1.6280 0006138 153.1112 207.0390 14.20692773384416
Epoch (UTC): 06 December 2021 03:21:13
Eccentricity: 0.0006138
inclination: 98.4472°
perigee height: 818 km
apogee height: 827 km
right ascension of ascending node: 1.6280°
argument of perigee: 153.1112°
revolutions per day: 14.20692773
mean anomaly at epoch: 207.0390°
orbit number at epoch: 38441

The dashed part of the orbit path shows where the satellite is in the earth's shadow,  

DLR